Location: Overspoor
(51.4747°N, 5.6641°E)
Time: 14:26:45
(UTC+02:00)

RS-15 - Pass Details

Date: 30 June 2022
Orbit: 1881 x 2163 km, 64.8° (Epoch: 13 August)

Event Time Altitude Azimuth Distance (km) Brightness Sun altitude
Rises 00:05:09 0° 312° (NW) 5,688 11.7 -12.4°
Reaches altitude 10° 00:08:40 10° 315° (NW) 4,691 11.2 -12.6°
Maximum altitude 00:21:07 73° 41° (NE) 2,233 8.4 -13.3°
Drops below altitude 10° 00:33:14 10° 126° (SE) 4,578 9.5 -13.9°
Enters shadow 00:34:55 - 127° (SE) 5,062 9.7 -13.9°
